Regional Weather Roundup
Issued by NWS

Home | Current Version | Previous Version | Graphics & Text | Print | Product List | Glossary Off
Versions: 1 2 3 4 5 6 7 8 9 10 11 12 13 14 15 16 17 18 19 20 21 22 23 24 25 26 27 28 29 30 31 32 33 34 35 36 37 38 39 40 41 42 43 44 45 46 47 48 49 50

000
ASUS43 KDTX 251601
RWRMI
MICHIGAN HOURLY REGIONAL WEATHER ROUNDUP
NATIONAL WEATHER SERVICE DETROIT/PONTIAC MI
1100 AM EST SAT FEB 25 2017

NOTE: "FAIR" INDICATES FEW OR NO CLOUDS BELOW 12,000 FEET WITH NO
SIGNIFICANT WEATHER AND/OR OBSTRUCTION TO VISIBILITY.

MIZ047>049-052>055-059>063-066>070-074>076-081>083-251700-
SOUTHEAST LOWER MICHIGAN

CITY           SKY/WX    TMP DP  RH WIND       PRES   REMARKS
ADRIAN         CLOUDY    32  25  75 W14G24    29.65R WCI  22
ALMA           FLURRIES  30  23  73 W16G24    29.59R WCI  19
ANN ARBOR      CLOUDY    34  26  72 W20       29.60R WCI  23
BAD AXE        PTSUNNY   33  24  69 W21G36    29.49R WCI  21
CARO           PTSUNNY   35  24  65 W26G36    29.53R WCI  22
DETROIT CITY   FLURRIES  37  27  67 W22G31    29.58R WCI  26
DETROIT        CLOUDY    37  26  64 W21G29    29.60R WCI  26
FLINT          PTSUNNY   31  21  66 W18G29    29.58R WCI  19
GROSSE ILE     CLOUDY    37  28  70 W15G25    29.60R WCI  28
HILLSDALE      FLURRIES  30  23  74 W17G30    29.63R WCI  18
HOWELL         CLOUDY    31  23  71 W16G31    29.60R WCI  20

CITY           SKY/WX    TMP DP  RH WIND       PRES   REMARKS
JACKSON        CLOUDY    30  22  72 W20G28    29.62R WCI  17
LAMBERTVILLE   CLOUDY    37  28  71 W12G24    29.64R WCI  29
LANSING        CLOUDY    30  17  58 W26G35    29.61R WCI  16
LAPEER         PTSUNNY   34  22  61 W18G29    29.55R WCI  23
MASON          CLOUDY    31  23  74 W21G29    29.62R WCI  18
MONROE         CLOUDY    37  29  74 W21G29    29.62R WCI  26
MT. CLEMENS    CLOUDY    38  28  67 W21G30    29.54R WCI  27
PONTIAC        FLURRIES  32  24  72 W24G31    29.56R WCI  19
PORT HOPE        N/A     36  26  67 W18G35    29.45R WCI  26
PORT HURON     CLOUDY    37  28  70 W9G22     29.54R WCI  31
TRI CITIES     CLOUDY    33  25  72 W26G36    29.54R WCI  20
MIDLAND        FLURRIES  32  23  69 W17G28    29.53R WCI  20
TROY           CLOUDY    37  24  60 W16G25    29.59R WCI  27
SAGINAW HB     PTSUNNY   34  21  60 W24G31    29.55R WCI  21
$$
MIZ043>046-050>051-056>058-064>065-071>073-077>080-251700-
SOUTHWEST LOWER MICHIGAN

CITY           SKY/WX    TMP DP  RH WIND       PRES   REMARKS
BATTLE CREEK   LGT SNOW  27  22  81 W18G28    29.66R WCI  14
BENTON HARBOR  FLURRIES  26  18  71 W20G28    29.75R WCI  12
BIG RAPIDS     FLURRIES  26  20  77 W12G23    29.57R WCI  16
COLDWATER      CLOUDY    29  21  73 W21G30    29.68R WCI  16
FREMONT        LGT SNOW  26  21  84 NW16G22   29.63R WCI  13
HOLLAND        LGT SNOW  26  19  74 W16G24    29.69R WCI  14
GRAND RAPIDS   LGT SNOW  27  21  78 W17G28    29.64R WCI  14
IONIA          LGT SNOW  28  20  74 W18G29    29.62R WCI  15
KALAMAZOO      LGT SNOW  27  19  72 W15       29.69R WCI  15
LUDINGTON      LGT SNOW  24  19  84 NW15G22   29.64R WCI  11
MARSHALL       CLOUDY    29  21  71 W18G28    29.65R WCI  16
MOUNT PLEASANT LGT SNOW  29  24  81 W13G21    29.56R WCI  19
MUSKEGON       LGT SNOW  26  20  77 NW15G26   29.68R WCI  14
SOUTH HAVEN    LGT SNOW  26  21  81 W14G23    29.73R WCI  15
$$
MIZ016>042-251700-
NORTHERN LOWER MICHIGAN

CITY           SKY/WX    TMP DP  RH WIND       PRES   REMARKS
ALPENA         PTSUNNY   30  22  72 W10G24    29.42S WCI  21
BEAVER ISLAND  LGT SNOW  23  20  88 W10G17    29.50R WCI  13
BELLAIRE       LGT SNOW  25  21  83 W10G23    29.54R WCI  15
CADILLAC       LGT SNOW  25  19  77 NW14G21   29.52R WCI  14
CHARLEVOIX     LGT SNOW  25  23  91 W21G28    29.53R VSB 1   WCI  11
FRANKFORT      LGT SNOW  23  20  85 NW21G31   29.60R WCI   8
GAYLORD        SNOW      25  19  78 W15G23    29.44R VSB 1/2 WCI  13
GRAYLING       LGT SNOW  27  21  79 W13G25    29.48R WCI  16
HARBOR SPRINGS LGT SNOW  25  20  83 W18G24    29.48R WCI  11
HOUGHTON LAKE  CLOUDY    27  20  75 W16G23    29.49R WCI  15
MANISTEE       LGT SNOW  24  19  81 NW21G29   29.62R WCI   9
OSCODA         PTSUNNY   35  26  68 W18G35    29.43R WCI  25
PELLSTON       LGT SNOW  25  19  78 W15G24    29.47R WCI  13
ROGERS CITY    LGT SNOW  28  24  86 W7        29.43R WCI  21
TRAVERSE CITY  LGT SNOW  25  20  81 NW18G24   29.55R FOG     WCI  11
$$
MIZ007>008-015-251700-
EASTERN UPPER MICHIGAN

CITY           SKY/WX    TMP DP  RH WIND       PRES   REMARKS
KINROSS        LGT SNOW  21  17  84 W22G28    29.40R FOG     WCI   5
MACKINAC ISLAN LGT SNOW  23  21  91 W13G22    29.43R VSB 1   WCI  11
NEWBERRY       LGT SNOW  20  18  91 NW9G18    29.44R VSB 1   WCI  10
S. S. MARIE    LGT SNOW  23  17  78 W13       29.37S WCI  11
MUNISING         N/A     22  17  81 N22G33    29.53R WCI   6
$$
MIZ004>006-011>014-085-251700-
CENTRAL UPPER MICHIGAN

CITY           SKY/WX    TMP DP  RH WIND       PRES   REMARKS
MANISTIQUE     LGT SNOW  22  21  95 NW13      29.50R WCI  10
ESCANABA       FLURRIES  20  14  77 W15       29.59S WCI   6
MENOMINEE      LGT SNOW  22  16  78 NW9       29.66R WCI  12
SAWYER-GWINN   LGT SNOW  18  12  79 NW22      29.54R WCI   0
$$
MIZ001>003-009>011-084-251700-
WESTERN UPPER MICHIGAN

CITY           SKY/WX    TMP DP  RH WIND       PRES   REMARKS
IRON MOUNTAIN  LGT SNOW  19  10  68 NW24G35   29.59R WCI   2
HOUGHTON       CLOUDY    17   8  67 NW22G33   29.62R HAZE    WCI   0
COPPER HARBOR    N/A     19  15  84 N26G36    29.61R WCI   1
IRONWOOD       LGT SNOW  16  12  84 NW15G21   29.73R FOG     WCI   1
$$

ABBREVIATIONS USED IN REMARKS
   TC - TEMPERATURE IN CELSIUS
  WCI - WIND CHILL INDEX
   HX - HEAT INDEX
  VSB - VISIBILITY





USA.gov is the U.S. government's official web portal to all federal, state and local government web resources and services.